This is the latest recevied weather packets stored in our database for station/object EA6AMR-10. If no packets are shown the sender has not sent any weather packets the latest 10 day(s).
| Time | Temp. | Humidity | Pressure | Rain* | Wind** | Luminosity | Snow |
|---|---|---|---|---|---|---|---|
| 1777369518 | 31.11° C | 34% | 1014.2 hPa | - | - | - | - |
| 1777369464 | 31.11° C | 34% | 1014.2 hPa | - | - | - | - |
| 1777368564 | 30.56° C | 35% | 1014.3 hPa | - | - | - | - |
| 1777367664 | 30.56° C | 36% | 1014.3 hPa | - | - | - | - |
| 1777366764 | 29.44° C | 36% | 1014.4 hPa | - | - | - | - |
| 1777365863 | 28.33° C | 37% | 1014.5 hPa | - | - | - | - |
| 1777364967 | 27.78° C | 37% | 1014.6 hPa | - | - | - | - |
| 1777364067 | 26.67° C | 36% | 1014.7 hPa | - | - | - | - |
| 1777363167 | 25.56° C | 37% | 1014.6 hPa | - | - | - | - |
| 1777362319 | 25° C | 37% | 1014.6 hPa | - | - | - | - |
| 1777362266 | 25° C | 37% | 1014.6 hPa | - | - | - | - |
| 1777361366 | 24.44° C | 38% | 1014.5 hPa | - | - | - | - |
| 1777360466 | 23.33° C | 38% | 1014.5 hPa | - | - | - | - |
| 1777359566 | 23.33° C | 37% | 1014.4 hPa | - | - | - | - |
| 1777358665 | 21.67° C | 38% | 1014.4 hPa | - | - | - | - |
| 1777357765 | 20.56° C | 38% | 1014.3 hPa | - | - | - | - |
| 1777356865 | 18.33° C | 39% | 1014.3 hPa | - | - | - | - |
| 1777355965 | 16.67° C | 41% | 1014.4 hPa | - | - | - | - |
| 1777355065 | 15.56° C | 41% | 1014.4 hPa | - | - | - | - |
| 1777354164 | 14.44° C | 42% | 1014.2 hPa | - | - | - | - |
| 1777353264 | 13.33° C | 43% | 1014.1 hPa | - | - | - | - |
| 1777352364 | 12.78° C | 43% | 1013.8 hPa | - | - | - | - |
| 1777351464 | 12.78° C | 43% | 1013.9 hPa | - | - | - | - |
| 1777350564 | 12.22° C | 43% | 1013.9 hPa | - | - | - | - |
| 1777349663 | 12.22° C | 44% | 1014 hPa | - | - | - | - |
* Rain since midnight (hover to see other rain measurements)
** Current wind speed in m/s (hover to see current wind gust speed)